Regional Weather Roundup
Issued by NWS

Home | Current Version | Previous Version | Graphics & Text | Print | Product List | Glossary On
Versions: 1 2 3 4 5 6 7 8 9 10 11 12 13 14 15 16 17 18 19 20 21 22 23 24 25 26 27 28 29 30 31 32 33 34 35 36 37 38 39 40 41 42 43 44 45 46 47 48 49 50
333
ASUS45 KTFX 130010
RWRMT
MONTANA REGIONAL WEATHER ROUNDUP
NATIONAL WEATHER SERVICE GREAT FALLS MT
500 PM MST FRI FEB 12 2016

NOTE: "FAIR" INDICATES FEW OR NO CLOUDS BELOW 12000 FEET WITH NO
SIGNIFICANT WEATHER AND/OR OBSTRUCTIONS TO VISIBILITY.

MTZ001>007-043-130100-
WEST OF THE DIVIDE

CITY           SKY/WX    TMP DP  RH WIND       PRES   REMARKS
KALISPELL      FOG       37  36  96 CALM      30.12S VSB 3/4
MISSOULA       CLOUDY    42  38  85 W3        30.13F
BUTTE          CLOUDY    45  33  63 CALM      30.14R
MULLAN PASS    CLOUDY    37  33  85 VRB3      30.11S
ANACONDA         N/A     45  36  70 NE6       30.13R
DEER LODGE       N/A     43  37  81 N3        30.14S
HAMILTON         N/A     52  39  62 CALM      30.12S
$$

MTZ008-052>055-130100-
SOUTHWEST MONTANA

CITY           SKY/WX    TMP DP  RH WIND       PRES   REMARKS
BOZEMAN        CLOUDY    43  34  70 S5        30.11F
DILLON         CLOUDY    45  30  55 SW13      30.13R
ENNIS          CLEAR     46  21  36 S16G26    30.20S
TWIN BRIDGES     N/A     40  29  65 NE8       30.11R
$$

MTZ009-010-012-014-046-048-049-054-130100-
EAST SLOPES AND CENTRAL MONTANA

CITY           SKY/WX    TMP DP  RH WIND       PRES   REMARKS
CUT BANK       PTCLDY    51  35  54 SW21      29.98F
GREAT FALLS    PTCLDY    56  34  43 SW15      30.02F
MALMSTROM AFB  PTCLDY    47  40  74 NE10      30.02F
HELENA         PTCLDY    49  38  65 N5        30.09S
CHOTEAU          N/A     55  34  44 W13       30.02S
CONRAD           N/A     46  40  79 NE2       30.03F
$$

MTZ011-013-016-021-045-047-050-051-130100-
NORTH CENTRAL MONTANA

CITY           SKY/WX    TMP DP  RH WIND       PRES   REMARKS
HAVRE          CLOUDY    30  25  81 E15       30.08F WCI  19
LEWISTOWN      CLOUDY    40  33  76 E10       30.06F
N BAR RANCH      N/A     39  34  81 VRB7      30.11S
CHINOOK          N/A     25  21  86 E17G26    30.12F WCI  11
$$

MTZ017>020-022>027-061-062-130100-
NORTHEAST MONTANA

CITY           SKY/WX    TMP DP  RH WIND       PRES   REMARKS
GLASGOW        LGT SNOW  17  12  80 E22       30.28F VSB 3/4 WCI   0
JORDAN           N/A     29  25  85 SE17      30.21F WCI  17
SIDNEY         CLOUDY    18   3  53 SE10      30.41F WCI   6
WOLF POINT     CLOUDY    19   9  65 E14       30.36F WCI   6
PLENTYWOOD       N/A     10   0  61 E13       30.39F WCI  -5
POPLAR           N/A     16   7  67 E14       30.38F WCI   1
$$

MTZ028>42-056>058-130100-
SOUTHCENTRAL AND SOUTHEAST MONTANA

CITY           SKY/WX    TMP DP  RH WIND       PRES   REMARKS
BAKER          CLOUDY    22  14  71 SE18G28   30.31F WCI   7
BILLINGS       MOCLDY    44  32  62 NE7       30.13F
LIVINGSTON     CLOUDY    50  37  61 SW6       30.09F
MILES CITY     CLOUDY    35  26  69 E9        30.23F WCI  28
FORSYTH          N/A     36  28  75 E12       30.19F WCI  27
LAUREL           N/A     46  32  58 N6        30.10F
ROUNDUP          N/A     42  30  62 S5        30.03F
$$

REGIONAL REPORTS...DAKOTAS

CITY           SKY/WX    TMP DP  RH WIND       PRES   REMARKS
WILLISTON      CLOUDY    13   1  59 E12       30.44F WCI  -1
MINOT          PTCLDY     4  -8  57 NE5       30.54F
DICKINSON      CLOUDY    10   1  67 SE14      30.40F WCI  -6
BEACH          CLOUDY    14   9  79 SE18      30.37F WCI  -3
CROSBY           N/A      9   0  66 SE8       30.48F WCI  -4
TIOGA            N/A      9   0  66 E13       30.49F WCI  -7
WATFORD CITY     N/A     12   0  57 SE13      30.43F WCI  -3
BISMARCK       CLOUDY     8  -3  61 E7        30.58R WCI  -3
GRAND FORKS    PTCLDY    -1 -10  65 NW8       30.68R WCI -15
FARGO          PTCLDY     0  -9  65 N9        30.68R WCI -15
BUFFALO SD       N/A     22  16  78 SE15      30.28F WCI   9
RAPID CITY     CLOUDY    24  22  91 SE14      30.35S FOG     WCI  12
$$

REGIONAL REPORTS...WYOMING/IDAHO/WASHINGTON

CITY           SKY/WX    TMP DP  RH WIND       PRES   REMARKS
GILLETTE       CLOUDY    43  30  60 SE8       30.18F
SHERIDAN       CLEAR     46  31  55 E7        30.14R
BUFFALO WY     CLOUDY    46  30  53 SE12      30.16F
CODY           CLEAR     52  25  35 SE12      30.11S
YELLOWSTONE LA   N/A     39  13  34 VRB6      30.29R
IDAHO FALLS    CLOUDY    32  25  75 NE3       30.28F
SALMON         CLOUDY    34  28  80 CALM      30.23R
BOISE          CLOUDY    48  33  56 CALM      30.23F
SPOKANE        CLOUDY    50  40  68 CALM      30.09F
$$

REGIONAL REPORTS...ALBERTA

CITY           SKY/WX    TMP DP  RH WIND       PRES   REMARKS
EDMONTON       LGT SNOW  18  12  79 SE16      30.01F WCI   3
CALGARY        FOG       28  27  93 S9        29.93F VSB 1   WCI  20
LETHBRIDGE     PTCLDY    54  36  50 W9        29.93F
MEDICINE HAT   PTCLDY    36  30  80 E6        30.02F WCI  31
WATERTON GATE    N/A     43  36  75 SW30G43     N/A
CARDSTON         N/A     52  32  46 W13G20      N/A
MILK RIVER       N/A     39  34  81 S18         N/A  WCI  30
ONEFOUR          N/A     25  25 100 E17G24      N/A  WCI  11
$$

REGIONAL REPORTS...SASKATCHEWAN

CITY           SKY/WX    TMP DP  RH WIND       PRES   REMARKS
SWIFT CURRENT  LGT SNOW  12  10  92 SE17G26   30.18F WCI  -5
SASKATOON      MOCLDY     5  -4  66 SE15      30.42F WCI -13
CYPRESS HILLS    N/A     18  14  86 SE5         N/A
VAL MARIE        N/A     16  12  86 SE14G20     N/A  WCI   1
ROCKGLEN         N/A     10   1  67 SE15G21     N/A  WCI  -6
ASSINIBOIA       N/A     16   7  67 SE14G21     N/A  WCI   1
$$




USA.gov is the U.S. government's official web portal to all federal, state and local government web resources and services.